Location: Unspecified
(52.1971°N, 0.0000°E)
Time: 04:17:37
(UTC+00:00)

YUBILEINY - Pass Details

Date: 21 December 2019
Orbit: 1478 x 1509 km, 82.5° (Epoch: 19 January)

Event Time Altitude Azimuth Distance (km) Brightness Sun altitude
Exits shadow 23:34:05 12° 346° (NNW) 3,446 ? -60.9°
Drops below altitude 10° 23:35:18 10° 354° (N) 3,630 ? -60.9°
Sets 23:39:54 0° 15° (NNE) 4,613 ? -61.0°
